Location: Bailey Volunteer Fire Department
(33.4359°N, 96.1680°W)
Time: 16:04:08
(UTC+00:00)

Cosmos 2266 Rocket - Pass Details

Date: 13 December 2025
Orbit: 933 x 1007 km, 82.9° (Epoch: 13 January)

Event Time Altitude Azimuth Distance (km) Brightness Sun altitude
Rises 12:43:18 0° 194° (SSW) 3,720 7.2 -7.8°
Reaches altitude 10° 12:45:52 10° 197° (SSW) 2,770 6.5 -7.3°
Maximum altitude 12:52:09 62° 278° (W) 1,116 4.1 -6.1°
Drops below altitude 10° 12:58:25 10° 358° (N) 2,752 6.1 -4.9°
Sets 13:00:58 0° 2° (N) 3,693 6.8 -4.4°
